Flag for Germany

Past Weather in 51°13'34.0"N, 6°50'06.9"E, Germany — Yesterday and Last 2 Weeks

Now
57 °F

Drizzle. Partly sunny.


Feels Like: 56 °F
Forecast: 56 / 49 °F
Wind: 7 mph from West

Location: Duesseldorf

Current Time: Jun 4, 2020 at 1:05:00 pm

Latest Report: Jun 4, 2020 at 12:20 pm


Visibility: 4 mi

Pressure: 29.42 "Hg

Humidity: 94%

Dew Point: 55 °F

Location of 51°13'34.0"N, 6°50'06.9"ELocation

Past Weather in 51°13'34.0"N, 6°50'06.9"E — Graph

°F

51°13'34.0"N, 6°50'06.9"E Temperature Yesterday

Maximum temperature yesterday: 79 °F (at 3:50 pm)
Minimum temperature yesterday: 55 °F (at 5:50 am)
Average temperature yesterday: 69 °F

High & Low Weather Summary for the Past Weeks

 TemperatureHumidityPressure
High84 °F (Jun 2, 3:50 pm)100% (May 21, 12:50 am)30.60 "Hg (May 21, 12:50 am)
Low43 °F (May 26, 4:50 am)22% (May 30, 4:20 pm)29.42 "Hg (Jun 4, 8:20 am)
Average63 °F57%30.21 "Hg
* Reported May 20 11:20 am — Jun 4 11:50 am, 51°13'34.0"N, 6°50'06.9"E. Weather by CustomWeather, © 2020

Note: Actual official high and low records may vary slightly from our data, if they occured in-between our weather recording intervals... More about our weather records

51°13'34.0"N, 6°50'06.9"E Weather History for the Previous 24 Hours

Scroll right to see more
 ConditionsComfort  
Time TempWeatherWind HumidityBarometerVisibility
11:50 am
Thu, Jun 4
57 °FDrizzle. Mostly cloudy.5 mph94%29.42 "Hg3 mi
11:20 am57 °FDrizzle. Mostly cloudy.7 mph88%29.42 "Hg4 mi
10:50 am59 °FDrizzle. Mostly cloudy.8 mph82%29.42 "HgN/A
10:20 am59 °FDrizzle. Mostly cloudy.9 mph82%29.42 "HgN/A
9:50 am59 °FOvercast.8 mph82%29.42 "HgN/A
9:20 am59 °FPartly sunny.6 mph88%29.42 "HgN/A
8:50 am59 °FPartly sunny.7 mph82%29.42 "HgN/A
8:20 am59 °FBroken clouds.5 mph88%29.42 "HgN/A
7:50 am59 °FLight rain. Partly sunny.5 mph88%29.45 "HgN/A
7:20 am59 °FLight rain. Low clouds.6 mph82%29.45 "HgN/A
6:50 am59 °FPartly sunny.6 mph88%29.45 "HgN/A
6:20 am59 °FScattered clouds.6 mph88%29.45 "HgN/A
5:50 am59 °FScattered clouds.6 mph88%29.45 "HgN/A
5:20 am59 °FScattered clouds.5 mph88%29.45 "HgN/A
4:50 am59 °FPassing clouds.5 mph88%29.47 "HgN/A
4:20 am59 °FClear.6 mph88%29.47 "Hg10 mi
3:50 am59 °FPassing clouds.7 mph88%29.47 "HgN/A
3:20 am59 °FPassing clouds.6 mph82%29.50 "HgN/A
2:50 am61 °FPassing clouds.7 mph83%29.50 "HgN/A
2:20 am61 °FPassing clouds.5 mph77%29.50 "HgN/A
1:50 am61 °FPassing clouds.5 mph77%29.50 "HgN/A
1:20 am63 °FClear.5 mph73%29.50 "Hg10 mi
12:50 am63 °FPassing clouds.3 mph68%29.53 "HgN/A
12:20 am63 °FClear.6 mph68%29.53 "Hg10 mi
11:50 pm
Wed, Jun 3
64 °FClear.6 mph64%29.53 "Hg10 mi
11:20 pm64 °FClear.6 mph64%29.53 "Hg10 mi
10:50 pm66 °FClear.8 mph60%29.56 "Hg10 mi
10:20 pm68 °FClear.8 mph53%29.56 "Hg10 mi
9:50 pm68 °FClear.8 mph53%29.56 "Hg10 mi
9:20 pm70 °FSunny.8 mph46%29.53 "Hg10 mi
8:50 pm72 °FSunny.3 mph36%29.56 "Hg10 mi
8:20 pm73 °FSunny.5 mph33%29.56 "Hg10 mi
7:50 pm75 °FPassing clouds.8 mph31%29.56 "HgN/A
7:20 pm75 °FPassing clouds.10 mph29%29.56 "HgN/A
6:50 pm75 °FPassing clouds.10 mph31%29.56 "HgN/A
6:20 pm77 °FPassing clouds.9 mph32%29.56 "HgN/A
5:50 pm75 °FPassing clouds.10 mph34%29.56 "HgN/A
5:20 pm77 °FPassing clouds.10 mph34%29.59 "HgN/A
4:50 pm77 °FPassing clouds.12 mph34%29.59 "HgN/A
4:20 pm75 °FPassing clouds.10 mph39%29.62 "HgN/A
3:50 pm79 °FPassing clouds.9 mph34%29.62 "HgN/A
2:50 pm77 °FPassing clouds.9 mph39%29.65 "HgN/A
2:20 pm77 °FPassing clouds.10 mph39%29.65 "HgN/A
1:50 pm77 °FPassing clouds.10 mph39%29.65 "HgN/A
1:20 pm75 °FSunny.14 mph39%29.68 "Hg10 mi
Weather by CustomWeather, © 2020

See weather overview

Advertising